DWI8553 MDSD-KMIA

Flight info

Callsign DWI8553
Flight time 2h 11m
Altitude 38000
Route MALVN2J MALVN Y261 MADIZ VIICE2
Aircraft B38M/M-SDE1FGHILORVWXY/HB1

Departure

Time 2026-05-08 21:11
Airport Las Américas International Airport (MDSD)

Arrival

Time 2026-05-08 23:22
Airport Miami International Airport (KMIA)
Time Latitude Longitude Altitude Speed Heading
2026-05-08 20:26 18.43112 -69.67553 70 ft 0 kts 290°
2026-05-08 20:59 18.43112 -69.67552 70 ft 0 kts 290°
2026-05-08 21:01 18.43106 -69.67536 63 ft 2 kts 290°
2026-05-08 21:01 18.43101 -69.67520 64 ft 2 kts 290°
2026-05-08 21:01 18.43095 -69.67504 62 ft 2 kts 290°
2026-05-08 21:02 18.43090 -69.67488 67 ft 2 kts 290°
2026-05-08 21:02 18.43084 -69.67472 60 ft 2 kts 290°
2026-05-08 21:02 18.43078 -69.67456 63 ft 2 kts 309°
2026-05-08 21:02 18.43066 -69.67446 62 ft 0 kts 336°
2026-05-08 21:06 18.43087 -69.67454 67 ft 8 kts 343°
2026-05-08 21:06 18.43157 -69.67475 59 ft 12 kts 343°
2026-05-08 21:07 18.43244 -69.67507 67 ft 14 kts 340°
2026-05-08 21:07 18.43337 -69.67527 62 ft 13 kts 21°
2026-05-08 21:07 18.43406 -69.67463 64 ft 16 kts 44°
2026-05-08 21:07 18.43487 -69.67381 58 ft 16 kts 44°
2026-05-08 21:08 18.43574 -69.67319 66 ft 15 kts 359°
2026-05-08 21:08 18.43676 -69.67350 72 ft 16 kts 341°
2026-05-08 21:08 18.43788 -69.67391 71 ft 19 kts 341°
2026-05-08 21:08 18.43918 -69.67439 72 ft 20 kts 340°
2026-05-08 21:09 18.44053 -69.67490 64 ft 20 kts 340°
2026-05-08 21:09 18.44166 -69.67509 69 ft 15 kts 358°
2026-05-08 21:09 18.44185 -69.67546 67 ft 5 kts 200°
2026-05-08 21:09 18.44151 -69.67531 64 ft 6 kts 152°
2026-05-08 21:10 18.44092 -69.67504 69 ft 15 kts 160°
2026-05-08 21:10 18.43868 -69.67422 72 ft 65 kts 161°
2026-05-08 21:10 18.43236 -69.67189 69 ft 125 kts 161°
2026-05-08 21:10 18.42251 -69.66827 94 ft 170 kts 160°
2026-05-08 21:11 18.41118 -69.66384 669 ft 176 kts 159°
2026-05-08 21:11 18.39980 -69.65928 1350 ft 178 kts 156°
2026-05-08 21:11 18.38788 -69.65449 1843 ft 191 kts 159°
2026-05-08 21:11 18.37426 -69.65283 2316 ft 208 kts 192°
2026-05-08 21:12 18.36209 -69.66177 2773 ft 227 kts 237°
2026-05-08 21:12 18.35676 -69.67776 3305 ft 238 kts 258°
2026-05-08 21:12 18.35254 -69.69506 3813 ft 251 kts 253°
2026-05-08 21:12 18.34726 -69.71333 4185 ft 270 kts 253°
2026-05-08 21:13 18.34151 -69.73280 4641 ft 283 kts 253°
2026-05-08 21:13 18.33561 -69.75251 5424 ft 282 kts 254°
2026-05-08 21:13 18.33050 -69.77244 6136 ft 283 kts 264°
2026-05-08 21:13 18.33222 -69.79280 6775 ft 282 kts 292°
2026-05-08 21:14 18.34041 -69.81143 7433 ft 284 kts 299°
2026-05-08 21:14 18.34970 -69.82990 8079 ft 285 kts 300°
2026-05-08 21:14 18.35912 -69.84839 8744 ft 289 kts 300°
2026-05-08 21:14 18.36827 -69.86723 9428 ft 291 kts 299°
2026-05-08 21:15 18.37742 -69.88661 9979 ft 297 kts 298°
2026-05-08 21:15 18.38657 -69.90647 10419 ft 309 kts 298°
2026-05-08 21:15 18.39618 -69.92736 10698 ft 324 kts 298°
2026-05-08 21:15 18.40604 -69.94878 11181 ft 330 kts 298°
2026-05-08 21:16 18.41608 -69.97060 11822 ft 333 kts 298°
2026-05-08 21:16 18.42624 -69.99267 12464 ft 337 kts 298°
2026-05-08 21:16 18.43652 -70.01502 13149 ft 340 kts 298°
2026-05-08 21:16 18.44691 -70.03761 13830 ft 344 kts 298°
2026-05-08 21:17 18.45742 -70.06045 14489 ft 347 kts 298°
2026-05-08 21:17 18.46795 -70.08338 15167 ft 350 kts 298°
2026-05-08 21:17 18.47862 -70.10653 15815 ft 353 kts 300°
2026-05-08 21:17 18.49278 -70.12734 16460 ft 349 kts 319°
2026-05-08 21:18 18.51244 -70.14201 17081 ft 347 kts 334°
2026-05-08 21:18 18.53398 -70.15396 17662 ft 351 kts 335°
2026-05-08 21:18 18.55573 -70.16563 18276 ft 352 kts 336°
2026-05-08 21:18 18.57774 -70.17720 18799 ft 355 kts 336°
2026-05-08 21:19 18.60003 -70.18876 19283 ft 357 kts 336°
2026-05-08 21:19 18.62240 -70.20028 19776 ft 360 kts 336°
2026-05-08 21:19 18.64507 -70.21190 20256 ft 363 kts 336°
2026-05-08 21:19 18.66787 -70.22358 20737 ft 366 kts 336°
2026-05-08 21:20 18.69059 -70.23521 21215 ft 368 kts 336°
2026-05-08 21:20 18.71374 -70.24706 21708 ft 371 kts 336°
2026-05-08 21:20 18.73711 -70.25903 22197 ft 374 kts 336°
2026-05-08 21:20 18.76063 -70.27108 22688 ft 377 kts 336°
2026-05-08 21:21 18.78430 -70.28320 23180 ft 380 kts 336°
2026-05-08 21:21 18.80817 -70.29544 23628 ft 383 kts 336°
2026-05-08 21:21 18.83217 -70.30774 24067 ft 385 kts 336°
2026-05-08 21:21 18.85640 -70.32017 24462 ft 388 kts 336°
2026-05-08 21:22 18.88077 -70.33267 24881 ft 390 kts 336°
2026-05-08 21:22 18.90534 -70.34528 25247 ft 393 kts 336°
2026-05-08 21:22 18.93007 -70.35798 25697 ft 395 kts 336°
2026-05-08 21:22 18.95457 -70.37056 26100 ft 398 kts 336°
2026-05-08 21:23 18.97957 -70.38340 26507 ft 401 kts 336°
2026-05-08 21:23 19.00479 -70.39636 26904 ft 403 kts 336°
2026-05-08 21:23 19.03012 -70.40938 27307 ft 406 kts 335°
2026-05-08 21:23 19.05562 -70.42249 27692 ft 409 kts 335°
2026-05-08 21:24 19.08128 -70.43569 28081 ft 411 kts 335°
2026-05-08 21:24 19.10714 -70.44900 28394 ft 416 kts 335°
2026-05-08 21:24 19.13357 -70.46260 28399 ft 428 kts 335°
2026-05-08 21:24 19.16048 -70.47646 28745 ft 430 kts 335°
2026-05-08 21:25 19.18747 -70.49036 29106 ft 433 kts 335°
2026-05-08 21:25 19.21464 -70.50437 29445 ft 436 kts 335°
2026-05-08 21:25 19.24202 -70.51848 29794 ft 438 kts 335°
2026-05-08 21:25 19.26954 -70.53268 30111 ft 440 kts 335°
2026-05-08 21:26 19.29717 -70.54693 30399 ft 443 kts 335°
2026-05-08 21:26 19.32491 -70.56125 30694 ft 445 kts 335°
2026-05-08 21:26 19.35248 -70.57548 30976 ft 447 kts 335°
2026-05-08 21:26 19.38047 -70.58994 31276 ft 449 kts 335°
2026-05-08 21:27 19.40833 -70.60500 31551 ft 451 kts 329°
2026-05-08 21:27 19.43383 -70.62450 31858 ft 453 kts 324°
2026-05-08 21:27 19.45941 -70.64429 32105 ft 456 kts 325°
2026-05-08 21:27 19.48505 -70.66413 32396 ft 457 kts 324°
2026-05-08 21:28 19.51076 -70.68408 32696 ft 458 kts 324°
2026-05-08 21:28 19.53649 -70.70406 33042 ft 459 kts 324°
2026-05-08 21:28 19.56220 -70.72404 33421 ft 458 kts 324°
2026-05-08 21:28 19.58786 -70.74398 33806 ft 457 kts 324°
2026-05-08 21:29 19.61345 -70.76389 34185 ft 456 kts 324°
2026-05-08 21:29 19.63899 -70.78375 34525 ft 455 kts 324°
2026-05-08 21:29 19.66445 -70.80358 34879 ft 453 kts 324°
2026-05-08 21:29 19.68982 -70.82333 35221 ft 452 kts 324°
2026-05-08 21:30 19.71526 -70.84314 35547 ft 451 kts 323°
2026-05-08 21:30 19.74059 -70.86288 35868 ft 450 kts 323°
2026-05-08 21:30 19.76582 -70.88254 36178 ft 450 kts 323°
2026-05-08 21:30 19.79094 -70.90214 36482 ft 449 kts 323°
2026-05-08 21:31 19.81613 -70.92179 36786 ft 448 kts 323°
2026-05-08 21:31 19.84127 -70.94141 37088 ft 447 kts 323°
2026-05-08 21:31 19.86624 -70.96090 37382 ft 446 kts 323°
2026-05-08 21:31 19.89094 -70.98020 37657 ft 445 kts 323°
2026-05-08 21:32 19.91586 -70.99967 37922 ft 444 kts 323°
2026-05-08 21:32 19.96556 -71.03852 37961 ft 441 kts 323°
2026-05-08 21:33 20.01489 -71.07713 37962 ft 440 kts 323°
2026-05-08 21:33 20.06423 -71.11578 37965 ft 440 kts 323°
2026-05-08 21:34 20.11352 -71.15440 37969 ft 440 kts 323°
2026-05-08 21:34 20.16289 -71.19313 37967 ft 440 kts 323°
2026-05-08 21:35 20.21228 -71.23191 37972 ft 441 kts 323°
2026-05-08 21:35 20.26174 -71.27076 37969 ft 441 kts 323°
2026-05-08 21:36 20.31110 -71.30957 37973 ft 441 kts 323°
2026-05-08 21:36 20.36055 -71.34848 37975 ft 441 kts 323°
2026-05-08 21:37 20.40900 -71.38794 37962 ft 440 kts 314°
2026-05-08 21:37 20.44562 -71.44000 37961 ft 441 kts 305°
2026-05-08 21:38 20.48036 -71.49397 37976 ft 441 kts 304°
2026-05-08 21:38 20.51471 -71.54835 37981 ft 441 kts 304°
2026-05-08 21:39 20.54887 -71.60268 37976 ft 441 kts 304°
2026-05-08 21:39 20.58312 -71.65719 37980 ft 442 kts 304°
2026-05-08 21:40 20.61732 -71.71169 37981 ft 442 kts 304°
2026-05-08 21:40 20.65155 -71.76629 37980 ft 442 kts 304°
2026-05-08 21:41 20.70258 -71.84779 37977 ft 442 kts 304°
2026-05-08 21:41 20.73675 -71.90242 37978 ft 442 kts 304°
2026-05-08 21:42 20.77093 -71.95712 37978 ft 442 kts 304°
2026-05-08 21:42 20.80507 -72.01180 37982 ft 442 kts 304°
2026-05-08 21:43 20.83903 -72.06627 37983 ft 442 kts 304°
2026-05-08 21:43 20.87314 -72.12101 37982 ft 442 kts 304°
2026-05-08 21:44 20.90728 -72.17587 37981 ft 443 kts 304°
2026-05-08 21:44 20.94139 -72.23072 37981 ft 443 kts 304°
2026-05-08 21:45 20.96974 -72.27635 37982 ft 443 kts 304°
2026-05-08 21:45 21.00937 -72.34019 37986 ft 443 kts 304°
2026-05-08 21:46 21.03771 -72.38590 37985 ft 443 kts 304°
2026-05-08 21:46 21.07179 -72.44090 37985 ft 443 kts 304°
2026-05-08 21:47 21.10582 -72.49587 37985 ft 443 kts 304°
2026-05-08 21:47 21.13983 -72.55086 37987 ft 443 kts 304°
2026-05-08 21:48 21.17365 -72.60563 37987 ft 443 kts 304°
2026-05-08 21:48 21.20763 -72.66072 37991 ft 443 kts 304°
2026-05-08 21:49 21.24154 -72.71574 37994 ft 442 kts 304°
2026-05-08 21:49 21.27544 -72.77079 37989 ft 442 kts 304°
2026-05-08 21:50 21.30914 -72.82557 37989 ft 443 kts 304°
2026-05-08 21:50 21.34302 -72.88071 37990 ft 443 kts 304°
2026-05-08 21:51 21.37684 -72.93581 37988 ft 443 kts 304°
2026-05-08 21:51 21.41069 -72.99100 37988 ft 443 kts 304°
2026-05-08 21:52 21.44452 -73.04621 37992 ft 443 kts 304°
2026-05-08 21:52 21.47836 -73.10151 37996 ft 443 kts 304°
2026-05-08 21:53 21.51214 -73.15675 37985 ft 442 kts 304°
2026-05-08 21:53 21.54568 -73.21165 37990 ft 442 kts 304°
2026-05-08 21:54 21.57942 -73.26695 37995 ft 442 kts 304°
2026-05-08 21:54 21.61313 -73.32225 37991 ft 442 kts 304°
2026-05-08 21:55 21.64682 -73.37757 37993 ft 442 kts 304°
2026-05-08 21:56 21.69729 -73.46055 37994 ft 442 kts 304°
2026-05-08 21:56 21.73070 -73.51555 37991 ft 442 kts 304°
2026-05-08 21:57 21.76436 -73.57101 37994 ft 442 kts 304°
2026-05-08 21:57 21.79797 -73.62645 37991 ft 442 kts 304°
2026-05-08 21:58 21.83152 -73.68185 37992 ft 442 kts 304°
2026-05-08 21:58 21.86482 -73.73690 37994 ft 442 kts 304°
2026-05-08 21:59 21.89835 -73.79238 37994 ft 441 kts 304°
2026-05-08 21:59 21.93181 -73.84780 37995 ft 441 kts 304°
2026-05-08 22:00 21.96509 -73.90298 37995 ft 441 kts 304°
2026-05-08 22:00 21.99853 -73.95847 37995 ft 441 kts 304°
2026-05-08 22:01 22.03191 -74.01393 37998 ft 441 kts 303°
2026-05-08 22:01 22.06528 -74.06943 37995 ft 441 kts 303°
2026-05-08 22:02 22.09857 -74.12485 37999 ft 440 kts 303°
2026-05-08 22:02 22.13165 -74.17998 37998 ft 440 kts 303°
2026-05-08 22:03 22.16489 -74.23544 38001 ft 440 kts 303°
2026-05-08 22:03 22.19815 -74.29097 38000 ft 440 kts 303°
2026-05-08 22:04 22.23116 -74.34616 37997 ft 440 kts 303°
2026-05-08 22:04 22.26438 -74.40175 37996 ft 440 kts 303°
2026-05-08 22:05 22.29757 -74.45736 38003 ft 440 kts 303°
2026-05-08 22:05 22.33070 -74.51292 38007 ft 440 kts 303°
2026-05-08 22:06 22.36384 -74.56854 38002 ft 440 kts 303°
2026-05-08 22:06 22.39675 -74.62385 37999 ft 440 kts 303°
2026-05-08 22:07 22.42990 -74.67962 38002 ft 441 kts 303°
2026-05-08 22:07 22.46301 -74.73537 38002 ft 441 kts 303°
2026-05-08 22:08 22.49611 -74.79117 38002 ft 441 kts 303°
2026-05-08 22:08 22.52924 -74.84707 37999 ft 441 kts 303°
2026-05-08 22:09 22.56232 -74.90296 38002 ft 441 kts 303°
2026-05-08 22:09 22.59518 -74.95854 37998 ft 441 kts 303°
2026-05-08 22:10 22.62830 -75.01462 38001 ft 442 kts 303°
2026-05-08 22:10 22.66138 -75.07068 38004 ft 442 kts 303°
2026-05-08 22:11 22.69451 -75.12688 38004 ft 442 kts 303°
2026-05-08 22:11 22.72739 -75.18273 38005 ft 442 kts 303°
2026-05-08 22:12 22.76051 -75.23904 38004 ft 442 kts 303°
2026-05-08 22:12 22.79339 -75.29501 38004 ft 442 kts 303°
2026-05-08 22:13 22.82640 -75.35126 38004 ft 442 kts 303°
2026-05-08 22:13 22.85943 -75.40760 38005 ft 442 kts 303°
2026-05-08 22:14 22.89243 -75.46395 38006 ft 442 kts 303°
2026-05-08 22:14 22.92513 -75.51985 38004 ft 442 kts 303°
2026-05-08 22:15 22.95802 -75.57613 38005 ft 441 kts 303°
2026-05-08 22:15 22.99092 -75.63250 38004 ft 442 kts 303°
2026-05-08 22:16 23.02377 -75.68883 38002 ft 441 kts 303°
2026-05-08 22:16 23.05658 -75.74516 38004 ft 441 kts 303°
2026-05-08 22:17 23.08935 -75.80149 38005 ft 441 kts 303°
2026-05-08 22:17 23.12190 -75.85750 38005 ft 441 kts 303°
2026-05-08 22:18 23.15458 -75.91381 38004 ft 440 kts 303°
2026-05-08 22:18 23.18727 -75.97018 38005 ft 440 kts 303°
2026-05-08 22:19 23.21993 -76.02656 38001 ft 440 kts 302°
2026-05-08 22:19 23.25228 -76.08248 38004 ft 440 kts 302°
2026-05-08 22:20 23.28481 -76.13876 38002 ft 439 kts 302°
2026-05-08 22:20 23.31731 -76.19505 38002 ft 439 kts 302°
2026-05-08 22:21 23.34978 -76.25135 38002 ft 438 kts 302°
2026-05-08 22:21 23.38219 -76.30762 38000 ft 438 kts 302°
2026-05-08 22:22 23.41433 -76.36348 38003 ft 438 kts 302°
2026-05-08 22:22 23.44665 -76.41971 38004 ft 438 kts 302°
2026-05-08 22:23 23.47893 -76.47592 38003 ft 437 kts 302°
2026-05-08 22:23 23.51116 -76.53213 38002 ft 437 kts 302°
2026-05-08 22:24 23.54343 -76.58845 38005 ft 437 kts 302°
2026-05-08 22:24 23.57537 -76.64427 38004 ft 437 kts 302°
2026-05-08 22:25 23.60750 -76.70049 38003 ft 436 kts 302°
2026-05-08 22:25 23.63960 -76.75672 38003 ft 436 kts 302°
2026-05-08 22:26 23.67162 -76.81285 38004 ft 436 kts 302°
2026-05-08 22:26 23.70359 -76.86897 38002 ft 435 kts 302°
2026-05-08 22:27 23.73533 -76.92477 38003 ft 435 kts 302°
2026-05-08 22:27 23.76725 -76.98092 38004 ft 434 kts 302°
2026-05-08 22:28 23.79908 -77.03699 38004 ft 434 kts 302°
2026-05-08 22:28 23.83088 -77.09306 38003 ft 434 kts 302°
2026-05-08 22:29 23.86267 -77.14918 38002 ft 434 kts 302°
2026-05-08 22:29 23.89423 -77.20495 38004 ft 434 kts 302°
2026-05-08 22:30 23.92595 -77.26108 38002 ft 433 kts 302°
2026-05-08 22:30 23.95760 -77.31715 38004 ft 433 kts 302°
2026-05-08 22:31 23.98923 -77.37321 38003 ft 433 kts 302°
2026-05-08 22:31 24.02081 -77.42927 38000 ft 433 kts 302°
2026-05-08 22:32 24.05237 -77.48533 37999 ft 433 kts 302°
2026-05-08 22:32 24.08372 -77.54109 37998 ft 432 kts 302°
2026-05-08 22:33 24.11517 -77.59710 37997 ft 432 kts 301°
2026-05-08 22:33 24.14666 -77.65324 37997 ft 432 kts 301°
2026-05-08 22:34 24.17808 -77.70931 38001 ft 432 kts 301°
2026-05-08 22:34 24.20949 -77.76544 37997 ft 432 kts 301°
2026-05-08 22:35 24.24084 -77.82151 37996 ft 431 kts 301°
2026-05-08 22:35 24.27248 -77.87690 37994 ft 431 kts 304°
2026-05-08 22:36 24.30611 -77.93124 37999 ft 431 kts 303°
2026-05-08 22:36 24.33962 -77.98577 37998 ft 430 kts 303°
2026-05-08 22:37 24.37303 -78.04024 37996 ft 430 kts 303°
2026-05-08 22:37 24.40639 -78.09470 37999 ft 430 kts 303°
2026-05-08 22:38 24.43950 -78.14880 37995 ft 430 kts 303°
2026-05-08 22:38 24.47279 -78.20325 37994 ft 429 kts 303°
2026-05-08 22:39 24.50610 -78.25781 37991 ft 429 kts 303°
2026-05-08 22:39 24.53928 -78.31220 37990 ft 429 kts 303°
2026-05-08 22:40 24.57230 -78.36639 37984 ft 429 kts 303°
2026-05-08 22:40 24.60561 -78.42111 37995 ft 432 kts 303°
2026-05-08 22:41 24.63897 -78.47600 37991 ft 431 kts 303°
2026-05-08 22:41 24.67224 -78.53079 37994 ft 431 kts 303°
2026-05-08 22:42 24.70536 -78.58539 37995 ft 431 kts 303°
2026-05-08 22:42 24.73864 -78.64032 37995 ft 431 kts 302°
2026-05-08 22:43 24.77185 -78.69517 37982 ft 430 kts 302°
2026-05-08 22:43 24.78842 -78.72257 37172 ft 431 kts 302°
2026-05-08 22:43 24.80527 -78.75041 36047 ft 441 kts 303°
2026-05-08 22:43 24.82220 -78.77839 35520 ft 437 kts 303°
2026-05-08 22:44 24.83905 -78.80627 34767 ft 438 kts 303°
2026-05-08 22:44 24.85599 -78.83431 33926 ft 442 kts 303°
2026-05-08 22:44 24.87300 -78.86246 33096 ft 442 kts 303°
2026-05-08 22:44 24.88975 -78.89022 32533 ft 437 kts 303°
2026-05-08 22:45 24.90648 -78.91795 32000 ft 432 kts 303°
2026-05-08 22:45 24.92299 -78.94534 31434 ft 428 kts 303°
2026-05-08 22:45 24.93945 -78.97265 30864 ft 425 kts 303°
2026-05-08 22:45 24.95579 -78.99978 30289 ft 423 kts 303°
2026-05-08 22:46 24.97200 -79.02671 29656 ft 421 kts 303°
2026-05-08 22:46 24.98811 -79.05350 29042 ft 418 kts 303°
2026-05-08 22:46 25.00408 -79.08007 28488 ft 414 kts 303°
2026-05-08 22:46 25.01990 -79.10639 27950 ft 410 kts 302°
2026-05-08 22:47 25.03557 -79.13250 27327 ft 409 kts 302°
2026-05-08 22:47 25.05102 -79.15824 26826 ft 405 kts 302°
2026-05-08 22:47 25.06649 -79.18404 26312 ft 402 kts 302°
2026-05-08 22:47 25.08186 -79.20966 25798 ft 399 kts 302°
2026-05-08 22:48 25.09716 -79.23520 25279 ft 397 kts 302°
2026-05-08 22:48 25.10723 -79.25203 24940 ft 396 kts 302°
2026-05-08 22:48 25.12237 -79.27731 24433 ft 394 kts 302°
2026-05-08 22:48 25.13745 -79.30251 23923 ft 393 kts 302°
2026-05-08 22:49 25.15244 -79.32758 23391 ft 392 kts 302°
2026-05-08 22:49 25.18232 -79.37757 22286 ft 387 kts 302°
2026-05-08 22:49 25.19703 -79.40220 21879 ft 379 kts 302°
2026-05-08 22:50 25.21141 -79.42630 21380 ft 374 kts 302°
2026-05-08 22:50 25.22567 -79.45020 20929 ft 371 kts 302°
2026-05-08 22:50 25.23986 -79.47400 20486 ft 369 kts 302°
2026-05-08 22:50 25.25393 -79.49763 20058 ft 367 kts 303°
2026-05-08 22:51 25.26775 -79.52083 19633 ft 366 kts 303°
2026-05-08 22:51 25.28169 -79.54425 19206 ft 364 kts 303°
2026-05-08 22:51 25.29558 -79.56759 18780 ft 363 kts 303°
2026-05-08 22:51 25.30941 -79.59085 18365 ft 362 kts 303°
2026-05-08 22:52 25.32320 -79.61404 17901 ft 360 kts 303°
2026-05-08 22:52 25.33691 -79.63713 17468 ft 358 kts 303°
2026-05-08 22:52 25.35053 -79.66006 17056 ft 355 kts 303°
2026-05-08 22:52 25.36404 -79.68282 16654 ft 353 kts 303°
2026-05-08 22:53 25.37744 -79.70541 16262 ft 350 kts 303°
2026-05-08 22:53 25.39102 -79.72768 15890 ft 347 kts 305°
2026-05-08 22:53 25.40507 -79.74944 15559 ft 349 kts 305°
2026-05-08 22:53 25.41919 -79.77144 15226 ft 352 kts 305°
2026-05-08 22:54 25.43334 -79.79355 14890 ft 351 kts 305°
2026-05-08 22:54 25.44737 -79.81551 14553 ft 349 kts 305°
2026-05-08 22:54 25.46136 -79.83744 14213 ft 348 kts 304°
2026-05-08 22:54 25.47530 -79.85928 13852 ft 346 kts 304°
2026-05-08 22:55 25.48917 -79.88092 13434 ft 344 kts 305°
2026-05-08 22:55 25.50295 -79.90244 13053 ft 341 kts 305°
2026-05-08 22:55 25.51644 -79.92350 12731 ft 337 kts 305°
2026-05-08 22:55 25.52100 -79.93062 12623 ft 335 kts 305°
2026-05-08 22:56 25.53076 -79.94589 12382 ft 332 kts 305°
2026-05-08 22:56 25.54409 -79.96671 12052 ft 329 kts 305°
2026-05-08 22:56 25.55720 -79.98721 11723 ft 323 kts 305°
2026-05-08 22:56 25.57000 -80.00725 11405 ft 314 kts 305°
2026-05-08 22:57 25.58246 -80.02675 11098 ft 306 kts 305°
2026-05-08 22:57 25.59468 -80.04589 10721 ft 303 kts 305°
2026-05-08 22:57 25.60667 -80.06467 10372 ft 299 kts 306°
2026-05-08 22:57 25.61853 -80.08325 10047 ft 293 kts 306°
2026-05-08 22:58 25.63027 -80.10165 9697 ft 292 kts 306°
2026-05-08 22:58 25.64201 -80.12008 9332 ft 292 kts 305°
2026-05-08 22:58 25.65364 -80.13850 9018 ft 290 kts 302°
2026-05-08 22:58 25.66265 -80.15838 8723 ft 287 kts 294°
2026-05-08 22:59 25.67098 -80.17835 8454 ft 283 kts 295°
2026-05-08 22:59 25.67938 -80.19795 8204 ft 280 kts 295°
2026-05-08 22:59 25.68767 -80.21726 7994 ft 275 kts 295°
2026-05-08 22:59 25.69569 -80.23644 7701 ft 273 kts 295°
2026-05-08 23:00 25.70369 -80.25544 7437 ft 271 kts 295°
2026-05-08 23:00 25.71065 -80.27469 7162 ft 268 kts 281°
2026-05-08 23:00 25.71115 -80.29520 6891 ft 266 kts 268°
2026-05-08 23:00 25.71040 -80.31559 6640 ft 263 kts 268°
2026-05-08 23:01 25.70960 -80.33578 6305 ft 262 kts 268°
2026-05-08 23:01 25.70874 -80.35577 5977 ft 258 kts 268°
2026-05-08 23:01 25.70784 -80.37565 5596 ft 256 kts 268°
2026-05-08 23:01 25.70692 -80.39525 5205 ft 255 kts 268°
2026-05-08 23:02 25.70599 -80.41475 5064 ft 251 kts 268°
2026-05-08 23:02 25.70506 -80.43420 5028 ft 254 kts 267°
2026-05-08 23:02 25.70387 -80.45358 4834 ft 252 kts 268°
2026-05-08 23:02 25.70299 -80.47301 4562 ft 251 kts 268°
2026-05-08 23:03 25.70216 -80.49210 4248 ft 251 kts 268°
2026-05-08 23:03 25.70140 -80.51141 4060 ft 249 kts 268°
2026-05-08 23:03 25.70148 -80.53078 3940 ft 252 kts 281°
2026-05-08 23:03 25.70868 -80.54824 3843 ft 252 kts 309°
2026-05-08 23:04 25.72259 -80.55979 3589 ft 254 kts 337°
2026-05-08 23:04 25.73988 -80.56300 3303 ft 255 kts
2026-05-08 23:04 25.75678 -80.55732 3020 ft 255 kts 30°
2026-05-08 23:04 25.76915 -80.54401 2979 ft 244 kts 57°
2026-05-08 23:05 25.77581 -80.52748 3064 ft 226 kts 73°
2026-05-08 23:05 25.77845 -80.51100 3050 ft 209 kts 84°
2026-05-08 23:05 25.77889 -80.49544 3032 ft 194 kts 89°
2026-05-08 23:05 25.77922 -80.48067 3019 ft 191 kts 87°
2026-05-08 23:06 25.77979 -80.46614 3013 ft 191 kts 87°
2026-05-08 23:06 25.78040 -80.45138 3000 ft 191 kts 88°
2026-05-08 23:06 25.78103 -80.43662 3009 ft 192 kts 87°
2026-05-08 23:06 25.78165 -80.42182 2909 ft 192 kts 88°
2026-05-08 23:07 25.78227 -80.40713 2600 ft 188 kts 87°
2026-05-08 23:07 25.78286 -80.39285 2223 ft 181 kts 89°
2026-05-08 23:07 25.78344 -80.37921 1835 ft 173 kts 89°
2026-05-08 23:07 25.78397 -80.36617 1475 ft 166 kts 91°
2026-05-08 23:08 25.78448 -80.35364 1301 ft 163 kts 91°
2026-05-08 23:08 25.78505 -80.34026 1534 ft 184 kts 90°
2026-05-08 23:08 25.78534 -80.32560 1834 ft 193 kts 92°
2026-05-08 23:08 25.78525 -80.30988 2312 ft 220 kts 92°
2026-05-08 23:09 25.78491 -80.29100 2785 ft 268 kts 92°
2026-05-08 23:09 25.78272 -80.26933 3468 ft 286 kts 103°
2026-05-08 23:09 25.77553 -80.24927 3527 ft 273 kts 124°
2026-05-08 23:09 25.76322 -80.23428 3643 ft 259 kts 145°
2026-05-08 23:10 25.74794 -80.22347 3829 ft 258 kts 152°
2026-05-08 23:10 25.73207 -80.21348 3394 ft 265 kts 152°
2026-05-08 23:10 25.71566 -80.20448 3120 ft 261 kts 165°
2026-05-08 23:10 25.69810 -80.20332 2956 ft 249 kts 195°
2026-05-08 23:11 25.68283 -80.21182 2972 ft 249 kts 224°
2026-05-08 23:11 25.67332 -80.22760 2989 ft 248 kts 253°
2026-05-08 23:11 25.67141 -80.24647 3008 ft 248 kts 272°
2026-05-08 23:11 25.67232 -80.26574 3072 ft 254 kts 277°
2026-05-08 23:12 25.67788 -80.28415 3488 ft 259 kts 294°
2026-05-08 23:12 25.68529 -80.30237 3596 ft 259 kts 292°
2026-05-08 23:12 25.69223 -80.32084 3746 ft 260 kts 291°
2026-05-08 23:12 25.69888 -80.33948 3900 ft 261 kts 291°
2026-05-08 23:13 25.70541 -80.35835 3993 ft 262 kts 290°
2026-05-08 23:13 25.71183 -80.37720 4006 ft 261 kts 290°
2026-05-08 23:13 25.71791 -80.39614 4005 ft 261 kts 284°
2026-05-08 23:13 25.71867 -80.41604 4008 ft 260 kts 264°
2026-05-08 23:14 25.71633 -80.43605 4010 ft 261 kts 263°
2026-05-08 23:14 25.71380 -80.45604 4010 ft 263 kts 263°
2026-05-08 23:14 25.71131 -80.47616 3999 ft 262 kts 263°
2026-05-08 23:14 25.70890 -80.49567 4002 ft 249 kts 263°
2026-05-08 23:15 25.70663 -80.51418 4005 ft 235 kts 263°
2026-05-08 23:15 25.70501 -80.53153 4019 ft 218 kts 274°
2026-05-08 23:15 25.71019 -80.54623 3991 ft 201 kts 308°
2026-05-08 23:15 25.72016 -80.55660 4009 ft 197 kts 326°
2026-05-08 23:16 25.73225 -80.56266 4033 ft 184 kts 347°
2026-05-08 23:16 25.74468 -80.56467 4025 ft 178 kts 351°
2026-05-08 23:16 25.75697 -80.56542 3960 ft 178 kts 11°
2026-05-08 23:16 25.76785 -80.55918 3800 ft 179 kts 44°
2026-05-08 23:17 25.77423 -80.54741 3661 ft 181 kts 70°
2026-05-08 23:17 25.77697 -80.53347 3311 ft 188 kts 83°
2026-05-08 23:17 25.77774 -80.51928 3161 ft 182 kts 88°
2026-05-08 23:17 25.77823 -80.50528 3075 ft 182 kts 88°
2026-05-08 23:18 25.77876 -80.49123 2979 ft 182 kts 87°
2026-05-08 23:18 25.77934 -80.47713 2773 ft 183 kts 87°
2026-05-08 23:18 25.77991 -80.46305 2565 ft 183 kts 88°
2026-05-08 23:18 25.78047 -80.44919 2341 ft 181 kts 89°
2026-05-08 23:19 25.78105 -80.43533 2120 ft 176 kts 89°
2026-05-08 23:19 25.78160 -80.42210 1902 ft 168 kts 89°
2026-05-08 23:19 25.78212 -80.40950 1724 ft 160 kts 89°
2026-05-08 23:19 25.78264 -80.39740 1465 ft 154 kts 90°
2026-05-08 23:20 25.78314 -80.38564 1211 ft 152 kts 89°
2026-05-08 23:20 25.78368 -80.37419 995 ft 148 kts 90°
2026-05-08 23:20 25.78421 -80.36279 879 ft 148 kts 90°
2026-05-08 23:20 25.78463 -80.35126 740 ft 149 kts 88°
2026-05-08 23:21 25.78506 -80.34016 537 ft 139 kts 88°
2026-05-08 23:21 25.78550 -80.32947 375 ft 139 kts 87°
2026-05-08 23:21 25.78596 -80.31874 181 ft 142 kts 87°
2026-05-08 23:21 25.78638 -80.30790 30 ft 139 kts 88°
2026-05-08 23:22 25.78676 -80.29902 16 ft 79 kts 88°
2026-05-08 23:22 25.78695 -80.29450 17 ft 54 kts 86°
2026-05-08 23:22 25.78763 -80.29201 17 ft 21 kts 44°
2026-05-08 23:22 25.78824 -80.29062 17 ft 20 kts 82°
2026-05-08 23:23 25.78852 -80.28910 17 ft 20 kts 77°
2026-05-08 23:23 25.78872 -80.28762 17 ft 17 kts 84°
2026-05-08 23:23 25.78873 -80.28621 17 ft 19 kts 88°
2026-05-08 23:23 25.78879 -80.28482 18 ft 12 kts 88°
2026-05-08 23:24 25.78881 -80.28427 18 ft 0 kts 88°
2026-05-08 23:24 25.78882 -80.28397 18 ft 12 kts 88°
2026-05-08 23:25 25.78926 -80.28278 18 ft 21 kts 50°
2026-05-08 23:25 25.79008 -80.28169 18 ft 13 kts 45°
2026-05-08 23:25 25.79069 -80.28189 18 ft 12 kts 299°
2026-05-08 23:25 25.79114 -80.28273 18 ft 13 kts 303°
2026-05-08 23:26 25.79166 -80.28362 18 ft 10 kts 301°
2026-05-08 23:26 25.79223 -80.28387 18 ft 9 kts 25°
2026-05-08 23:26 25.79266 -80.28345 18 ft 8 kts 42°
2026-05-08 23:26 25.79302 -80.28311 17 ft 6 kts 41°
2026-05-08 23:27 25.79330 -80.28283 17 ft 5 kts 39°
2026-05-08 23:27 25.79365 -80.28266 17 ft 7 kts 10°
2026-05-08 23:27 25.79415 -80.28266 17 ft 7 kts 359°
2026-05-08 23:27 25.79458 -80.28269 17 ft 5 kts 347°
2026-05-08 23:28 25.79476 -80.28288 17 ft 3 kts 299°
2026-05-08 23:28 25.79484 -80.28312 18 ft 4 kts 289°
2026-05-08 23:28 25.79491 -80.28334 17 ft 1 kts 288°
2026-05-08 23:28 25.79492 -80.28336 17 ft 0 kts 288°